Change the Weather History Date:

Sunday, November 24, 2013

  Actual Average Record
Temperature  
Mean Temperature 22 °F -  
Max Temperature 26 °F 44 °F 62 °F (1999)
Min Temperature 19 °F 30 °F 12 °F (2000)
Degree Days  
Heating Degree Days 42    
Moisture  
Dew Point 1 °F    
Average Humidity 41    
Maximum Humidity 50    
Minimum Humidity 28    
Precipitation  
Precipitation 0.00 in - - ()
Sea Level Pressure  
Sea Level Pressure 30.07 in    
Wind  
Wind Speed 14 mph (NW)    
Max Wind Speed 23 mph    
Max Gust Speed 40 mph    
Visibility 10 miles    
Events      
Averages and records for this station are not official NWS values.
T = Trace of Precipitation, MM = Missing Value Source: NWS Daily Summary

Daily Weather History Graph

Daily Weather History Graph

Search for Another Location

Airport or City:

Trip Planner

Search our weather history database for the weather conditions in past years. The results will help you decide how hot, cold, wet, or windy it might be!

Date:

Astronomy

Nov. 24, 2013 Rise Set
Actual Time 6:52 AM EST 4:26 PM EST
Civil Twilight 6:21 AM EST 4:56 PM EST
Nautical Twilight 5:47 AM EST 5:30 PM EST
Astronomical Twilight 5:14 AM EST 6:03 PM EST
Moon 10:51 PM EST (11/24) 11:36 AM EST (11/24)
Length of Visible Light 10h 35m
Length of Day
9h 34m
Waning Gibbous, 61% of the Moon is Illuminated
Nov 24
Waning Gibbous
Nov 25
Last Quarter
Dec 2
New
Dec 9
First Quarter
Dec 17
Full

Hourly Weather History & Observations

Time (EST) Temp. Windchill Dew Point Humidity Pressure Visibility Wind Dir Wind Speed Gust Speed Precip Events Conditions
12:15 AM 26.6 °F 14.3 °F 6.8 °F 43% 29.92 in 10.0 mi WNW 16.1 mph 27.6 mph N/A   Overcast
12:35 AM 24.8 °F 12.9 °F 8.6 °F 50% 29.92 in 10.0 mi West 13.8 mph 20.7 mph N/A   Mostly Cloudy
12:55 AM 24.8 °F 14.6 °F 5.0 °F 43% 29.92 in 10.0 mi NW 10.4 mph 23.0 mph N/A   Partly Cloudy
1:15 AM 24.8 °F 11.9 °F 3.2 °F 40% 29.92 in 10.0 mi NW 16.1 mph 32.2 mph N/A   Clear
1:35 AM 24.8 °F 14.0 °F 1.4 °F 36% 29.93 in 10.0 mi WNW 11.5 mph 28.8 mph N/A   Clear
1:55 AM 23.0 °F 9.6 °F -0.4 °F 36% 29.93 in 10.0 mi NNW 16.1 mph 24.2 mph N/A   Partly Cloudy
2:15 AM 23.0 °F 9.2 °F 1.4 °F 39% 29.94 in 10.0 mi WNW 17.3 mph 28.8 mph N/A   Overcast
2:35 AM 23.0 °F 10.1 °F 3.2 °F 43% 29.95 in 10.0 mi WNW 15.0 mph 21.9 mph N/A   Overcast
2:55 AM 21.2 °F 9.5 °F 3.2 °F 46% 29.95 in 10.0 mi WNW 11.5 mph 21.9 mph N/A   Mostly Cloudy
3:15 AM 21.2 °F 10.9 °F 3.2 °F 46% 29.94 in 10.0 mi WNW 9.2 mph 19.6 mph N/A   Partly Cloudy
3:35 AM 21.2 °F 11.7 °F 1.4 °F 42% 29.95 in 10.0 mi WNW 8.1 mph 24.2 mph N/A   Partly Cloudy
3:55 AM 21.2 °F 9.5 °F 1.4 °F 42% 29.95 in 10.0 mi WNW 11.5 mph 19.6 mph N/A   Partly Cloudy
4:15 AM 19.4 °F 7.2 °F 1.4 °F 46% 29.95 in 10.0 mi WNW 11.5 mph 25.3 mph N/A   Mostly Cloudy
4:35 AM 19.4 °F 6.0 °F 1.4 °F 46% 29.94 in 10.0 mi WNW 13.8 mph 20.7 mph N/A   Mostly Cloudy
4:55 AM 19.4 °F 5.5 °F -0.4 °F 42% 29.95 in 10.0 mi WNW 15.0 mph 24.2 mph N/A   Scattered Clouds
5:15 AM 19.4 °F 6.6 °F 1.4 °F 46% 29.94 in 10.0 mi WNW 12.7 mph 21.9 mph N/A   Partly Cloudy
5:35 AM 19.4 °F 6.0 °F -0.4 °F 42% 29.94 in 10.0 mi NW 13.8 mph 24.2 mph N/A   Mostly Cloudy
5:45 AM 19.4 °F 7.2 °F -0.4 °F 42% 29.94 in 10.0 mi NW 11.5 mph 24.2 mph N/A   Partly Cloudy
6:45 AM 19.4 °F 7.2 °F -0.4 °F 42% 29.97 in 10.0 mi NW 11.5 mph 28.8 mph N/A   Partly Cloudy
7:45 AM 19.4 °F 7.2 °F 1.4 °F 46% 30.00 in 10.0 mi NNW 11.5 mph 19.6 mph N/A   Scattered Clouds
8:45 AM 19.4 °F 3.6 °F -0.4 °F 42% 30.03 in 10.0 mi NNW 19.6 mph 27.6 mph N/A   Partly Cloudy
9:45 AM 21.2 °F 6.8 °F -0.4 °F 39% 30.04 in 10.0 mi NW 17.3 mph 34.5 mph N/A   Partly Cloudy
10:45 AM 21.2 °F 9.5 °F -0.4 °F 39% 30.05 in 10.0 mi NNW 11.5 mph 28.8 mph N/A   Partly Cloudy
11:45 AM 21.2 °F 6.8 °F -2.2 °F 36% 30.07 in 10.0 mi NNW 17.3 mph 34.5 mph N/A   Scattered Clouds
12:45 PM 24.8 °F 9.6 °F -4.0 °F 28% 30.08 in 10.0 mi NNW 23.0 mph 40.3 mph N/A   Partly Cloudy
1:45 PM 24.8 °F 9.6 °F -4.0 °F 28% 30.09 in 10.0 mi NNW 23.0 mph 34.5 mph N/A   Partly Cloudy
2:45 PM 24.8 °F 9.6 °F -4.0 °F 28% 30.12 in 10.0 mi NNW 23.0 mph 34.5 mph N/A   Partly Cloudy
3:45 PM 23.0 °F 8.0 °F -4.0 °F 31% - - NNW 20.7 mph 29.9 mph N/A   Partly Cloudy
4:24 PM 21.2 °F - -4.0 °F 33% 30.18 in 10.0 mi North - - N/A   Partly Cloudy
4:50 PM 21.2 °F - -4.0 °F 33% 30.18 in 10.0 mi North - - N/A   Partly Cloudy
5:05 PM 21.2 °F 9.5 °F -4.0 °F 33% 30.18 in 10.0 mi NNW 11.5 mph 27.6 mph N/A   Partly Cloudy
5:45 PM 21.2 °F 7.8 °F -5.8 °F 30% 30.20 in - NW 15.0 mph 25.3 mph N/A   Clear
6:45 PM 21.2 °F 10.9 °F -2.2 °F 36% 30.23 in 10.0 mi NW 9.2 mph 21.9 mph N/A   Mostly Cloudy
7:45 PM 19.4 °F 7.2 °F 1.4 °F 46% 30.24 in 10.0 mi NW 11.5 mph - N/A   Clear
9:15 PM 19.4 °F 7.9 °F 3.2 °F 49% 30.24 in 10.0 mi NW 10.4 mph 17.3 mph N/A   Mostly Cloudy
9:35 PM 19.4 °F 7.2 °F 3.2 °F 49% 30.24 in 10.0 mi WNW 11.5 mph 17.3 mph N/A   Overcast
9:55 PM 21.2 °F 11.7 °F 3.2 °F 46% 30.25 in 10.0 mi WNW 8.1 mph - N/A   Overcast
10:15 PM 21.2 °F 10.9 °F 3.2 °F 46% 30.26 in 10.0 mi NW 9.2 mph - N/A   Overcast
10:35 PM 21.2 °F 10.9 °F 1.4 °F 42% 30.27 in 10.0 mi WNW 9.2 mph - N/A   Overcast
10:55 PM 19.4 °F 8.6 °F 1.4 °F 46% 30.26 in 10.0 mi WNW 9.2 mph 18.4 mph N/A   Mostly Cloudy
11:15 PM 19.4 °F 11.5 °F 1.4 °F 46% 30.27 in 10.0 mi NW 5.8 mph 17.3 mph N/A   Scattered Clouds
11:35 PM 19.4 °F 7.9 °F 1.4 °F 46% 30.28 in 10.0 mi NNW 10.4 mph - N/A   Partly Cloudy
11:55 PM 19.4 °F 11.5 °F 3.2 °F 49% 30.28 in 10.0 mi NNW 5.8 mph - N/A   Clear